This demonstration page uses our WeatherBlox Daily Observations layout. Learn more.

Left ArrowRight Arrow

Hourly Observations for October 6, 2021

Temp ( °F °C ) Dew Point ( °F °C ) Humidity (%) Winds ( mph kmh ) Pressure ( in mb ) Visibility ( mi km ) Precip ( " mm )
12:15 am 00:15 Clear 54 12.2 45 7 71 71 SE 7 11 30.16 1021 10 16 0.00 0.00
12:35 am 00:35 Clear 54 12 45 7 72 72 SE 5 7 30.17 1022 10 16 0.00 0.00
12:55 am 00:55 Clear 52 11.3 45 7.1 76 76 SSE 5 7 30.16 1021 10 16 0.00 0.00
1:15 am 01:15 Clear 53 11.6 45 7.2 75 75 SSE 5 7 30.16 1021 10 16 0.00 0.00
1:35 am 01:35 Clear 51 10.7 45 7.3 80 80 SE 5 7 30.17 1022 10 16 0.00 0.00
1:55 am 01:55 Clear 52 10.9 47 8.1 83 83 SSE 5 7 30.17 1022 10 16 0.00 0.00
2:15 am 02:15 Clear 52 11 47 8.3 84 84 SSE 3 6 30.17 1022 10 16 0.00 0.00
2:35 am 02:35 Clear 53 11.5 48 8.8 84 84 SSE 3 6 30.17 1022 10 16 0.00 0.00
2:55 am 02:55 Clear 52 11.2 48 8.9 86 86 SSE 5 7 30.18 1022 10 16 0.00 0.00
3:15 am 03:15 Clear 52 11.2 48 9 86 86 SSE 5 7 30.18 1022 10 16 0.00 0.00
3:35 am 03:35 Clear 50 10.1 47 8.5 90 90 SE 5 7 30.18 1022 10 16 0.00 0.00
3:55 am 03:55 Clear 51 10.5 48 9 91 91 SSE 3 6 30.18 1022 10 16 0.00 0.00
4:15 am 04:15 Clear 50 9.8 47 8.5 92 92 SE 6 9 30.17 1022 10 16 0.00 0.00
4:35 am 04:35 Clear 50 10.1 48 8.9 92 92 SSE 5 7 30.17 1022 10 16 0.00 0.00
4:55 am 04:55 Clear 50 10.1 48 9 93 93 SSE 5 7 30.17 1022 10 16 0.00 0.00
5:15 am 05:15 Clear 51 10.7 49 9.5 92 92 Calm 30.17 1022 10 16 0.00 0.00
5:35 am 05:35 Clear 51 10.4 49 9.4 94 94 S 3 6 30.17 1022 10 16 0.00 0.00
5:55 am 05:55 Clear 50 10.2 48 9.1 93 93 SSE 3 6 30.17 1022 10 16 0.00 0.00
6:15 am 06:15 Clear 50 9.8 48 8.9 94 94 S 3 6 30.17 1022 10 16 0.00 0.00
6:35 am 06:35 Clear 49 9.7 48 9 95 95 Calm 30.18 1022 10 16 0.00 0.00
6:55 am 06:55 Clear 50 10 48 9.1 94 94 SSE 3 6 30.17 1022 10 16 0.00 0.00
7:15 am 07:15 Clear 49 9.6 48 8.8 95 95 SSE 3 6 30.18 1022 10 16 0.00 0.00
7:35 am 07:35 Clear 48 8.7 46 7.8 94 94 SE 5 7 30.18 1022 10 16 0.00 0.00
7:55 am 07:55 Sunny 48 8.9 47 8.3 96 96 Calm 30.18 1022 10 16 0.00 0.00
8:15 am 08:15 Sunny 49 9.2 48 8.7 97 97 SSE 3 6 30.18 1022 10 16 0.00 0.00
8:35 am 08:35 Sunny 51 10.4 50 9.9 97 97 Calm 30.17 1022 10 16 0.00 0.00
8:55 am 08:55 Sunny 54 12.3 52 11.2 93 93 S 5 7 30.15 1021 10 16 0.00 0.00
9:15 am 09:15 Sunny 58 14.3 54 12.1 87 87 SSE 5 7 30.14 1020 10 16 0.00 0.00
9:35 am 09:35 Sunny 61 15.9 55 12.8 82 82 SSE 8 13 30.12 1020 10 16 0.00 0.00
9:55 am 09:55 Sunny 63 17.1 55 12.7 75 75 S 9 15 30.11 1020 10 16 0.00 0.00
10:15 am 10:15 Sunny 64 17.9 55 12.6 71 71 S 13 20 30.10 1019 10 16 0.00 0.00
10:35 am 10:35 Sunny 65 18.4 55 12.5 69 69 SSE 13 20 30.09 1019 10 16 0.00 0.00
10:55 am 10:55 Sunny 67 19.6 55 12.5 64 64 SSE 14 22 30.08 1019 10 16 0.00 0.00
11:15 am 11:15 Sunny 69 20.4 54 12.3 60 60 SSE 14 22 30.07 1018 10 16 0.00 0.00
11:35 am 11:35 Sunny 69 20.7 53 11.9 57 57 S 12 19 30.06 1018 10 16 0.00 0.00
11:55 am 11:55 Sunny 70 21.1 54 12.1 57 57 S 13 20 30.05 1018 10 16 0.00 0.00
12:15 pm 12:15 Sunny 70 21.2 54 12.2 57 57 SSE 14 22 30.05 1018 10 16 0.00 0.00
12:55 pm 12:55 Sunny 72 22.1 53 11.8 52 52 SSE 14 22 30.03 1017 10 16 0.00 0.00
1:15 pm 13:15 Sunny 73 22.6 53 11.7 50 50 SSE 13 20 30.02 1016 10 16 0.00 0.00
1:35 pm 13:35 Partly Cloudy 73 22.9 53 11.4 48 48 SE 15 24 30.00 1016 10 16 0.00 0.00
1:55 pm 13:55 Partly Cloudy 73 23 53 11.5 48 48 SSE 12 19 29.99 1016 10 16 0.00 0.00
2:15 pm 14:15 Partly Cloudy 74 23.6 52 11.1 45 45 SSE 10 17 29.98 1015 10 16 0.00 0.00
2:35 pm 14:35 Sunny 75 23.7 52 11.1 45 45 SE 13 20 29.97 1015 10 16 0.00 0.00
2:55 pm 14:55 Sunny 74 23.6 52 11.2 46 46 SE 14 22 29.96 1014 10 16 0.00 0.00
3:15 pm 15:15 Partly Cloudy 75 24 52 11.1 44 44 SSE 10 17 29.94 1014 10 16 0.00 0.00
3:35 pm 15:35 Partly Cloudy 76 24.4 52 11.2 44 44 SE 13 20 29.94 1014 10 16 0.00 0.00
3:55 pm 15:55 Partly Cloudy 75 24 51 10.8 44 44 SE 15 24 29.93 1014 10 16 0.00 0.00
4:15 pm 16:15 Sunny 75 23.8 52 11 45 45 SSE 10 17 29.94 1014 10 16 0.00 0.00
4:35 pm 16:35 Sunny 75 23.8 52 11.3 46 46 SE 16 26 29.93 1013 10 16 0.00 0.00
4:55 pm 16:55 Sunny 74 23.6 52 11 45 45 SE 12 19 29.93 1013 10 16 0.00 0.00
5:15 pm 17:15 Sunny 74 23.6 52 10.9 45 45 SE 14 22 29.93 1013 10 16 0.00 0.00
5:35 pm 17:35 Sunny 74 23.3 52 10.9 46 46 SSE 10 17 29.93 1014 10 16 0.00 0.00
5:55 pm 17:55 Sunny 73 23 52 10.9 47 47 SE 14 22 29.93 1014 10 16 0.00 0.00
6:15 pm 18:15 Sunny 73 22.5 52 10.9 48 48 SE 10 17 29.94 1014 10 16 0.00 0.00
6:35 pm 18:35 Sunny 71 21.9 52 11 50 50 SE 10 17 29.94 1014 10 16 0.00 0.00
6:55 pm 18:55 Sunny 69 20.8 52 11.1 54 54 SE 9 15 29.95 1014 10 16 0.00 0.00
7:15 pm 19:15 Clear 68 19.9 52 11.2 57 57 SE 8 13 29.96 1014 10 16 0.00 0.00
7:35 pm 19:35 Clear 66 18.7 52 11.1 61 61 SE 8 13 29.97 1015 10 16 0.00 0.00
7:55 pm 19:55 Clear 63 17.2 52 11 67 67 SE 8 13 29.99 1016 10 16 0.00 0.00
8:15 pm 20:15 Clear 61 16.3 52 11 71 71 ESE 8 13 30.00 1016 10 16 0.00 0.00
8:35 pm 20:35 Clear 60 15.5 52 11 75 75 ESE 9 15 30.00 1016 10 16 0.00 0.00
8:55 pm 20:55 Clear 60 15.7 52 11.2 75 75 ESE 9 15 30.00 1016 10 16 0.00 0.00
9:15 pm 21:15 Clear 60 15.8 53 11.6 76 76 SE 9 15 30.00 1016 10 16 0.00 0.00
9:35 pm 21:35 Clear 60 15.7 53 11.8 78 78 SE 9 15 30.00 1016 10 16 0.00 0.00
9:55 pm 21:55 Clear 61 16 54 12 77 77 SE 10 17 30.00 1016 10 16 0.00 0.00
10:15 pm 22:15 Clear 61 15.9 54 12 78 78 SSE 10 17 30.00 1016 10 16 0.00 0.00
10:35 pm 22:35 Clear 60 15.6 54 12 79 79 SE 9 15 30.00 1016 10 16 0.00 0.00
10:55 pm 22:55 Clear 60 15.5 54 12 80 80 SE 10 17 30.00 1016 10 16 0.00 0.00
11:15 pm 23:15 Clear 60 15.3 54 12 81 81 SE 9 15 30.01 1016 10 16 0.00 0.00
11:35 pm 23:35 Clear 59 15 54 12 82 82 SE 9 15 30.01 1016 10 16 0.00 0.00
11:55 pm 23:55 Clear 59 14.8 53 11.9 83 83 SE 9 15 30.02 1017 10 16 0.00 0.00

Powered by AerisWeather